This is the latest recevied weather packets stored in our database for station/object BARLOW-WX. If no packets are shown the sender has not sent any weather packets the latest 10 day(s).
| Time | Temp. | Humidity | Pressure | Rain* | Wind** | Luminosity | Snow |
|---|---|---|---|---|---|---|---|
| 1777676500 | 5.56° C | 55% | 989.8 hPa | 0 mm | - | - | - |
| 1777675578 | 6.11° C | 58% | 988.5 hPa | 0 mm | - | - | - |
| 1777674696 | 6.11° C | 57% | 989.4 hPa | 0 mm | - | - | - |
| 1777673778 | 6.67° C | 57% | 989.5 hPa | 0 mm | - | - | - |
| 1777672907 | 6.67° C | 57% | 989.5 hPa | 0 mm | - | - | - |
| 1777671978 | 6.67° C | 60% | 988.9 hPa | 0 mm | - | - | - |
| 1777671092 | 6.67° C | 71% | 989.2 hPa | 0 mm | - | - | - |
| 1777670178 | 6.11° C | 71% | 989.1 hPa | 0 mm | - | - | - |
| 1777669306 | 5.56° C | 71% | 989.1 hPa | 0 mm | - | - | - |
| 1777668378 | 6.67° C | 59% | 988.5 hPa | 0 mm | - | - | - |
| 1777667495 | 7.22° C | 58% | 988.6 hPa | 0 mm | - | - | - |
| 1777666578 | 6.67° C | 58% | 988.6 hPa | 0 mm | - | - | - |
| 1777665705 | 6.67° C | 58% | 988.6 hPa | 0 mm | - | - | - |
| 1777664778 | 6.67° C | 55% | 988.4 hPa | 0 mm | - | - | - |
| 1777663894 | 7.22° C | 55% | 988.4 hPa | 0 mm | - | - | - |
| 1777662978 | 7.22° C | 55% | 988.3 hPa | 0 mm | - | - | - |
| 1777662101 | 7.22° C | 55% | 988.3 hPa | 0 mm | - | - | - |
| 1777661178 | 7.22° C | 56% | 988 hPa | 0 mm | - | - | - |
| 1777660293 | 7.22° C | 56% | 988.2 hPa | 0 mm | - | - | - |
| 1777659378 | 6.67° C | 56% | 988.1 hPa | 0 mm | - | - | - |
| 1777658511 | 6.67° C | 56% | 988.1 hPa | 0 mm | - | - | - |
| 1777657578 | 7.22° C | 56% | 989.1 hPa | 0 mm | - | - | - |
| 1777656694 | 6.67° C | 56% | 988.4 hPa | 0 mm | - | - | - |
| 1777655777 | 7.22° C | 56% | 988.5 hPa | 0 mm | - | - | - |
| 1777654905 | 7.22° C | 56% | 988.5 hPa | 0 mm | - | - | - |
* Rain latest hour (hover to see other rain measurements)
** Current wind speed in m/s (hover to see current wind gust speed)